| time (UTC) | temp C | wind direction | speed KPH | gust KPH | rain 1hr cm | rain 24hr cm | rain mn cm | humidity % | barometer mb |
| 20260906165509 | 23 | 74 | 1.6 | 12.9 | 0.00 | 0.00 | 0.00 | 82 | 1019.7 |
| 20260906165011 | 23 | 185 | 3.2 | 12.9 | 0.00 | 0.00 | 0.00 | 83 | 1019.7 |
| 20260906164525 | 23 | 155 | 3.2 | 9.7 | 0.00 | 0.00 | 0.00 | 82 | 1019.8 |
| 20260906164014 | 23 | 93 | 4.8 | 9.7 | 0.00 | 0.00 | 0.00 | 83 | 1019.7 |
| 20260906163503 | 23 | 120 | 3.2 | 9.7 | 0.00 | 0.00 | 0.00 | 83 | 1019.7 |
| 20260906163005 | 22 | 72 | 4.8 | 11.3 | 0.00 | 0.00 | 0.00 | 84 | 1019.7 |
| 20260906162503 | 22 | 148 | 3.2 | 11.3 | 0.00 | 0.00 | 0.00 | 84 | 1019.8 |
| 20260906162006 | 22 | 23 | 1.6 | 11.3 | 0.00 | 0.00 | 0.00 | 84 | 1020.1 |
| 20260906161510 | 22 | 161 | 3.2 | 8.0 | 0.00 | 0.00 | 0.00 | 84 | 1020.0 |
| 20260906161008 | 22 | 186 | 0.0 | 6.4 | 0.00 | 0.00 | 0.00 | 86 | 1020.1 |
| 20260906160508 | 22 | 113 | 0.0 | 4.8 | 0.00 | 0.00 | 0.00 | 85 | 1020.1 |
| 20260906160019 | 22 | 137 | 1.6 | 8.0 | 0.00 | 0.00 | 0.00 | 85 | 1020.1 |
| 20260906155510 | 22 | 65 | 0.0 | 8.0 | 0.00 | 0.00 | 0.00 | 85 | 1020.1 |
| 20260906155012 | 22 | 36 | 0.0 | 6.4 | 0.00 | 0.00 | 0.00 | 85 | 1020.1 |
| 20260906154524 | 22 | 146 | 1.6 | 6.4 | 0.00 | 0.00 | 0.00 | 87 | 1020.2 |
| 20260906154013 | 22 | 180 | 1.6 | 8.0 | 0.00 | 0.00 | 0.00 | 86 | 1020.1 |
| 20260906153512 | 22 | 40 | 3.2 | 8.0 | 0.00 | 0.00 | 0.00 | 86 | 1019.9 |
| 20260906153030 | 22 | 76 | 1.6 | 8.0 | 0.00 | 0.00 | 0.00 | 87 | 1020.0 |
| 20260906152504 | 22 | 136 | 1.6 | 6.4 | 0.00 | 0.00 | 0.00 | 87 | 1020.0 |
| 20260906152004 | 21 | 131 | 1.6 | 4.8 | 0.00 | 0.00 | 0.00 | 87 | 1020.1 |
| 20260906151508 | 21 | 105 | 0.0 | 6.4 | 0.00 | 0.00 | 0.00 | 88 | 1020.1 |
| 20260906151003 | 21 | 53 | 3.2 | 6.4 | 0.00 | 0.00 | 0.00 | 88 | 1020.1 |
| 20260906150507 | 21 | 246 | 0.0 | 6.4 | 0.00 | 0.00 | 0.00 | 88 | 1020.1 |
| 20260906150017 | 21 | 44 | 1.6 | 6.4 | 0.00 | 0.00 | 0.00 | 88 | 1020.1 |
| 20260906145510 | 21 | 88 | 0.0 | 11.3 | 0.00 | 0.00 | 0.00 | 88 | 1020.1 |
| 20260906145013 | 21 | 199 | 3.2 | 11.3 | 0.00 | 0.00 | 0.00 | 88 | 1020.0 |
| 20260906144524 | 21 | 84 | 0.0 | 9.7 | 0.00 | 0.00 | 0.00 | 89 | 1019.9 |
| 20260906144009 | 21 | 65 | 1.6 | 9.7 | 0.00 | 0.00 | 0.00 | 89 | 1019.9 |
| 20260906143513 | 21 | 39 | 0.0 | 6.4 | 0.00 | 0.00 | 0.00 | 89 | 1019.9 |
| 20260906143031 | 21 | 112 | 1.6 | 9.7 | 0.00 | 0.00 | 0.00 | 90 | 1019.7 |
| 20260906142514 | 21 | 186 | 3.2 | 8.0 | 0.00 | 0.00 | 0.00 | 90 | 1019.7 |
| 20260906142014 | 21 | 202 | 1.6 | 11.3 | 0.00 | 0.00 | 0.00 | 90 | 1019.7 |
| 20260906141539 | 21 | 160 | 4.8 | 11.3 | 0.00 | 0.00 | 0.00 | 90 | 1019.8 |
| 20260906141006 | 20 | 146 | 1.6 | 6.4 | 0.00 | 0.00 | 0.00 | 91 | 1019.8 |
| 20260906140504 | 20 | 191 | 3.2 | 6.4 | 0.00 | 0.00 | 0.00 | 91 | 1019.7 |
| 20260906140035 | 20 | 37 | 1.6 | 8.0 | 0.00 | 0.00 | 0.00 | 92 | 1019.8 |
| 20260906135507 | 20 | 48 | 1.6 | 8.0 | 0.00 | 0.00 | 0.00 | 92 | 1019.8 |
| 20260906135007 | 20 | 55 | 3.2 | 11.3 | 0.00 | 0.00 | 0.00 | 92 | 1019.7 |
| 20260906134520 | 20 | 126 | 1.6 | 11.3 | 0.00 | 0.00 | 0.00 | 92 | 1019.6 |
| 20260906134008 | 20 | 165 | 3.2 | 11.3 | 0.00 | 0.00 | 0.00 | 93 | 1019.5 |
| 20260906133509 | 20 | 55 | 3.2 | 6.4 | 0.00 | 0.00 | 0.00 | 93 | 1019.5 |
| 20260906133026 | 20 | 177 | 0.0 | 11.3 | 0.00 | 0.00 | 0.00 | 93 | 1019.5 |
| 20260906132514 | 20 | 100 | 1.6 | 11.3 | 0.00 | 0.00 | 0.00 | 93 | 1019.4 |
| 20260906132013 | 20 | 109 | 3.2 | 9.7 | 0.00 | 0.00 | 0.00 | 93 | 1019.4 |
| 20260906131534 | 20 | 105 | 0.0 | 9.7 | 0.00 | 0.00 | 0.00 | 93 | 1019.5 |
| 20260906131015 | 20 | 110 | 1.6 | 11.3 | 0.00 | 0.00 | 0.00 | 93 | 1019.4 |
| 20260906130515 | 20 | 98 | 1.6 | 11.3 | 0.00 | 0.00 | 0.00 | 93 | 1019.3 |
| 20260906130012 | 20 | 149 | 1.6 | 8.0 | 0.00 | 0.00 | 0.00 | 93 | 1019.3 |
| 20260906125507 | 20 | 158 | 3.2 | 8.0 | 0.00 | 0.00 | 0.00 | 93 | 1019.2 |
| 20260906125007 | 20 | 66 | 1.6 | 6.4 | 0.00 | 0.00 | 0.00 | 93 | 1019.1 |
| 20260906124516 | 20 | 56 | 3.2 | 6.4 | 0.00 | 0.00 | 0.00 | 93 | 1019.1 |
| 20260906124010 | 20 | 82 | 1.6 | 4.8 | 0.00 | 0.00 | 0.00 | 94 | 1018.9 |
| 20260906123510 | 20 | 61 | 3.2 | 4.8 | 0.00 | 0.00 | 0.00 | 94 | 1019.0 |
| 20260906123022 | 20 | 48 | 1.6 | 6.4 | 0.00 | 0.00 | 0.00 | 94 | 1018.9 |
| 20260906122512 | 20 | 77 | 1.6 | 8.0 | 0.00 | 0.00 | 0.00 | 93 | 1018.9 |
| 20260906122015 | 20 | 37 | 3.2 | 8.0 | 0.00 | 0.00 | 0.00 | 93 | 1018.8 |
| 20260906121527 | 20 | 71 | 4.8 | 8.0 | 0.00 | 0.00 | 0.00 | 93 | 1018.7 |
| 20260906121013 | 20 | 55 | 3.2 | 6.4 | 0.00 | 0.00 | 0.00 | 93 | 1018.7 |
| 20260906120519 | 20 | 55 | 3.2 | 8.0 | 0.00 | 0.00 | 0.00 | 93 | 1018.6 |
| 20260906120035 | 20 | 48 | 3.2 | 8.0 | 0.00 | 0.00 | 0.00 | 94 | 1018.7 |
| 20260906115515 | 20 | 54 | 1.6 | 6.4 | 0.00 | 0.00 | 0.00 | 94 | 1018.7 |
| 20260906115006 | 20 | 116 | 0.0 | 8.0 | 0.00 | 0.00 | 0.00 | 95 | 1018.8 |
| 20260906114521 | 20 | 76 | 4.8 | 8.0 | 0.00 | 0.00 | 0.00 | 95 | 1018.7 |
| 20260906114010 | 20 | 48 | 3.2 | 6.4 | 0.00 | 0.00 | 0.00 | 95 | 1018.6 |
| 20260906113509 | 20 | 115 | 1.6 | 8.0 | 0.00 | 0.00 | 0.00 | 94 | 1018.6 |
| 20260906113034 | 20 | 51 | 3.2 | 8.0 | 0.00 | 0.00 | 0.00 | 94 | 1018.6 |
| 20260906112511 | 20 | 56 | 3.2 | 8.0 | 0.00 | 0.00 | 0.00 | 94 | 1018.6 |
| 20260906112014 | 20 | 61 | 3.2 | 8.0 | 0.00 | 0.00 | 0.00 | 94 | 1018.6 |
| 20260906111529 | 20 | 49 | 4.8 | 6.4 | 0.00 | 0.00 | 0.00 | 94 | 1018.5 |
| 20260906111011 | 20 | 56 | 1.6 | 6.4 | 0.00 | 0.00 | 0.00 | 94 | 1018.5 |
| 20260906110516 | 20 | 64 | 1.6 | 4.8 | 0.00 | 0.00 | 0.00 | 94 | 1018.5 |
| 20260906110032 | 20 | 28 | 1.6 | 3.2 | 0.00 | 0.00 | 0.00 | 94 | 1018.6 |
| 20260906105517 | 20 | 51 | 0.0 | 3.2 | 0.00 | 0.00 | 0.00 | 94 | 1018.6 |
| 20260906105015 | 20 | 63 | 0.0 | 3.2 | 0.00 | 0.00 | 0.00 | 94 | 1018.5 |
| 20260906104535 | 20 | 63 | 0.0 | 3.2 | 0.00 | 0.00 | 0.00 | 94 | 1018.3 |
| 20260906104019 | 20 | 136 | 0.0 | 3.2 | 0.00 | 0.00 | 0.00 | 94 | 1018.3 |
| 20260906103507 | 20 | 84 | 0.0 | 1.6 | 0.00 | 0.00 | 0.00 | 94 | 1018.2 |
| 20260906103020 | 20 | 84 | 0.0 | 1.6 | 0.00 | 0.00 | 0.00 | 94 | 1018.2 |
| 20260906102508 | 20 | 84 | 0.0 | 1.6 | 0.00 | 0.00 | 0.00 | 94 | 1018.2 |
| 20260906102010 | 20 | 49 | 0.0 | 0.0 | 0.00 | 0.00 | 0.00 | 94 | 1018.3 |
| 20260906101526 | 20 | 49 | 0.0 | 3.2 | 0.00 | 0.00 | 0.00 | 94 | 1018.4 |
| 20260906101013 | 20 | 49 | 0.0 | 6.4 | 0.00 | 0.00 | 0.00 | 94 | 1018.5 |
| 20260906100516 | 20 | 49 | 1.6 | 6.4 | 0.00 | 0.00 | 0.00 | 94 | 1018.4 |
| 20260906100033 | 20 | 46 | 3.2 | 4.8 | 0.00 | 0.00 | 0.00 | 94 | 1018.1 |
| 20260906095516 | 20 | 55 | 0.0 | 3.2 | 0.00 | 0.00 | 0.00 | 94 | 1017.8 |
| 20260906095016 | 20 | 142 | 1.6 | 3.2 | 0.00 | 0.00 | 0.00 | 94 | 1017.8 |
| 20260906094531 | 20 | 28 | 0.0 | 3.2 | 0.00 | 0.00 | 0.00 | 94 | 1017.7 |
| 20260906094019 | 20 | 79 | 0.0 | 0.0 | 0.00 | 0.00 | 0.00 | 94 | 1017.7 |
| 20260906093518 | 20 | 79 | 0.0 | 0.0 | 0.00 | 0.00 | 0.00 | 94 | 1017.7 |
| 20260906093046 | 20 | 79 | 0.0 | 3.2 | 0.00 | 0.00 | 0.00 | 94 | 1017.5 |
| 20260906092509 | 20 | 79 | 0.0 | 3.2 | 0.00 | 0.00 | 0.00 | 94 | 1017.3 |
| 20260906092011 | 20 | 46 | 0.0 | 3.2 | 0.00 | 0.00 | 0.00 | 94 | 1017.3 |
| 20260906091525 | 20 | 118 | 1.6 | 3.2 | 0.00 | 0.00 | 0.00 | 94 | 1017.3 |
| 20260906091011 | 20 | 58 | 0.0 | 3.2 | 0.00 | 0.00 | 0.00 | 94 | 1017.3 |
| 20260906090513 | 20 | 98 | 0.0 | 3.2 | 0.00 | 0.00 | 0.00 | 93 | 1017.2 |
| 20260906090043 | 20 | 57 | 1.6 | 3.2 | 0.00 | 0.00 | 0.00 | 94 | 1017.2 |
| 20260906085514 | 20 | 66 | 1.6 | 3.2 | 0.00 | 0.00 | 0.00 | 94 | 1017.3 |
| 20260906085012 | 20 | 50 | 1.6 | 6.4 | 0.00 | 0.00 | 0.00 | 93 | 1017.3 |
| 20260906084534 | 20 | 16 | 1.6 | 9.7 | 0.00 | 0.00 | 0.00 | 93 | 1017.2 |
| 20260906084013 | 20 | 152 | 3.2 | 9.7 | 0.00 | 0.00 | 0.00 | 93 | 1017.2 |
| 20260906083516 | 20 | 51 | 4.8 | 11.3 | 0.00 | 0.00 | 0.00 | 93 | 1017.3 |
| 20260906083039 | 20 | 58 | 4.8 | 11.3 | 0.00 | 0.00 | 0.00 | 93 | 1017.4 |
| 20260906082518 | 20 | 54 | 4.8 | 9.7 | 0.00 | 0.00 | 0.00 | 93 | 1017.4 |
| 20260906082018 | 20 | 55 | 3.2 | 8.0 | 0.00 | 0.00 | 0.00 | 93 | 1017.3 |
| 20260906081533 | 20 | 53 | 3.2 | 8.0 | 0.00 | 0.00 | 0.00 | 93 | 1017.4 |
| 20260906081011 | 21 | 42 | 4.8 | 6.4 | 0.00 | 0.00 | 0.00 | 93 | 1017.4 |
| 20260906080513 | 20 | 70 | 1.6 | 3.2 | 0.00 | 0.00 | 0.00 | 93 | 1017.2 |
| 20260906080028 | 21 | 55 | 0.0 | 3.2 | 0.00 | 0.00 | 0.00 | 93 | 1017.2 |
| 20260906075511 | 21 | 76 | 0.0 | 3.2 | 0.00 | 0.00 | 0.00 | 92 | 1017.2 |
| 20260906075004 | 21 | 94 | 0.0 | 3.2 | 0.00 | 0.00 | 0.00 | 92 | 1017.4 |
| 20260906074521 | 21 | 56 | 1.6 | 4.8 | 0.00 | 0.00 | 0.00 | 92 | 1017.5 |
| 20260906074002 | 21 | 159 | 1.6 | 4.8 | 0.00 | 0.00 | 0.00 | 92 | 1017.5 |
| 20260906073504 | 21 | 125 | 0.0 | 6.4 | 0.00 | 0.00 | 0.00 | 92 | 1017.5 |
| 20260906073011 | 21 | 51 | 1.6 | 9.7 | 0.00 | 0.00 | 0.00 | 92 | 1017.5 |
| 20260906072506 | 21 | 49 | 4.8 | 9.7 | 0.00 | 0.00 | 0.00 | 92 | 1017.6 |
| 20260906072008 | 21 | 76 | 4.8 | 9.7 | 0.00 | 0.00 | 0.00 | 92 | 1017.6 |
| 20260906071518 | 21 | 50 | 4.8 | 6.4 | 0.00 | 0.00 | 0.00 | 92 | 1017.6 |
| 20260906071010 | 21 | 63 | 3.2 | 6.4 | 0.00 | 0.00 | 0.00 | 92 | 1017.5 |
| 20260906070510 | 21 | 59 | 3.2 | 6.4 | 0.00 | 0.00 | 0.00 | 92 | 1017.6 |
| 20260906070025 | 21 | 65 | 3.2 | 8.0 | 0.00 | 0.00 | 0.00 | 92 | 1017.7 |
| 20260906065513 | 21 | 67 | 4.8 | 8.0 | 0.00 | 0.00 | 0.00 | 92 | 1017.7 |
| 20260906065013 | 21 | 71 | 4.8 | 8.0 | 0.00 | 0.00 | 0.00 | 92 | 1017.7 |
| 20260906064503 | 21 | 87 | 1.6 | 6.4 | 0.00 | 0.00 | 0.00 | 92 | 1017.7 |
| 20260906064004 | 21 | 57 | 3.2 | 6.4 | 0.00 | 0.00 | 0.00 | 92 | 1017.9 |
| 20260906063504 | 21 | 66 | 3.2 | 6.4 | 0.00 | 0.00 | 0.00 | 92 | 1018.0 |
| 20260906063008 | 21 | 78 | 3.2 | 6.4 | 0.00 | 0.00 | 0.00 | 91 | 1018.0 |
| 20260906062506 | 21 | 70 | 3.2 | 6.4 | 0.00 | 0.00 | 0.00 | 91 | 1017.9 |
| 20260906062006 | 21 | 60 | 3.2 | 6.4 | 0.00 | 0.00 | 0.00 | 91 | 1017.9 |
| 20260906061512 | 21 | 52 | 1.6 | 4.8 | 0.00 | 0.00 | 0.00 | 91 | 1017.9 |
| 20260906061008 | 21 | 75 | 1.6 | 3.2 | 0.00 | 0.00 | 0.00 | 91 | 1017.8 |
| 20260906060509 | 21 | 60 | 0.0 | 4.8 | 0.00 | 0.00 | 0.00 | 91 | 1017.8 |
| 20260906060021 | 21 | 60 | 1.6 | 4.8 | 0.00 | 0.00 | 0.00 | 90 | 1017.8 |
| 20260906055511 | 21 | 76 | 0.0 | 3.2 | 0.00 | 0.00 | 0.00 | 90 | 1017.9 |
| 20260906055013 | 22 | 82 | 1.6 | 4.8 | 0.00 | 0.00 | 0.00 | 90 | 1017.8 |
| 20260906054526 | 22 | 75 | 1.6 | 8.0 | 0.00 | 0.00 | 0.00 | 90 | 1017.8 |
| 20260906054014 | 22 | 69 | 3.2 | 8.0 | 0.00 | 0.00 | 0.00 | 90 | 1017.8 |
| 20260906053513 | 22 | 52 | 1.6 | 6.4 | 0.00 | 0.00 | 0.00 | 90 | 1017.7 |
| 20260906053008 | 22 | 41 | 1.6 | 4.8 | 0.00 | 0.00 | 0.00 | 90 | 1017.6 |
| 20260906052504 | 22 | 51 | 1.6 | 4.8 | 0.00 | 0.00 | 0.00 | 90 | 1017.7 |
| 20260906052004 | 22 | 47 | 3.2 | 6.4 | 0.00 | 0.00 | 0.00 | 90 | 1017.8 |
| 20260906051511 | 22 | 78 | 1.6 | 6.4 | 0.00 | 0.00 | 0.00 | 89 | 1017.6 |
| 20260906051006 | 22 | 69 | 4.8 | 6.4 | 0.00 | 0.00 | 0.00 | 89 | 1017.5 |
| 20260906050505 | 22 | 52 | 3.2 | 6.4 | 0.00 | 0.00 | 0.00 | 89 | 1017.4 |
| 20260906050021 | 22 | 63 | 3.2 | 6.4 | 0.00 | 0.00 | 0.00 | 89 | 1017.4 |
| 20260906045511 | 22 | 49 | 3.2 | 6.4 | 0.00 | 0.00 | 0.00 | 89 | 1017.5 |
| 20260906045010 | 22 | 51 | 3.2 | 6.4 | 0.00 | 0.00 | 0.00 | 89 | 1017.5 |
| 20260906044526 | 22 | 48 | 3.2 | 6.4 | 0.00 | 0.00 | 0.00 | 89 | 1017.4 |
| 20260906044015 | 22 | 55 | 3.2 | 8.0 | 0.00 | 0.00 | 0.00 | 89 | 1017.4 |
| 20260906043514 | 22 | 59 | 3.2 | 8.0 | 0.00 | 0.00 | 0.00 | 89 | 1017.5 |
| 20260906043031 | 22 | 49 | 4.8 | 8.0 | 0.00 | 0.00 | 0.00 | 89 | 1017.5 |
| 20260906042516 | 22 | 58 | 3.2 | 6.4 | 0.00 | 0.00 | 0.00 | 89 | 1017.5 |
| 20260906042002 | 22 | 56 | 3.2 | 4.8 | 0.00 | 0.00 | 0.00 | 89 | 1017.6 |
| 20260906041512 | 22 | 63 | 1.6 | 6.4 | 0.00 | 0.00 | 0.00 | 89 | 1017.6 |
| 20260906041006 | 23 | 82 | 1.6 | 8.0 | 0.00 | 0.00 | 0.00 | 89 | 1017.6 |
| 20260906040509 | 23 | 61 | 4.8 | 8.0 | 0.00 | 0.00 | 0.00 | 89 | 1017.6 |
| 20260906040013 | 23 | 59 | 4.8 | 8.0 | 0.00 | 0.00 | 0.00 | 89 | 1017.4 |
| 20260906035509 | 23 | 71 | 3.2 | 8.0 | 0.00 | 0.00 | 0.00 | 88 | 1017.4 |
| 20260906035010 | 23 | 61 | 3.2 | 8.0 | 0.00 | 0.00 | 0.00 | 88 | 1017.4 |
| 20260906034525 | 23 | 55 | 3.2 | 8.0 | 0.00 | 0.00 | 0.00 | 88 | 1017.4 |
| 20260906034009 | 23 | 44 | 3.2 | 8.0 | 0.00 | 0.00 | 0.00 | 88 | 1017.4 |
| 20260906033513 | 23 | 54 | 3.2 | 6.4 | 0.00 | 0.00 | 0.00 | 88 | 1017.3 |
| 20260906033026 | 23 | 63 | 1.6 | 6.4 | 0.00 | 0.00 | 0.00 | 88 | 1017.3 |
| 20260906032516 | 23 | 41 | 3.2 | 8.0 | 0.00 | 0.00 | 0.00 | 88 | 1017.2 |
| 20260906032016 | 23 | 76 | 3.2 | 8.0 | 0.00 | 0.00 | 0.00 | 88 | 1017.1 |
| 20260906031536 | 23 | 49 | 4.8 | 8.0 | 0.00 | 0.00 | 0.00 | 88 | 1017.1 |
| 20260906031007 | 23 | 54 | 3.2 | 8.0 | 0.00 | 0.00 | 0.00 | 88 | 1017.1 |
| 20260906030503 | 23 | 65 | 3.2 | 12.9 | 0.00 | 0.00 | 0.00 | 88 | 1017.1 |
| 20260906030011 | 23 | 74 | 3.2 | 12.9 | 0.00 | 0.00 | 0.00 | 88 | 1017.1 |
| 20260906025508 | 23 | 60 | 4.8 | 8.0 | 0.00 | 0.00 | 0.00 | 88 | 1017.1 |
| 20260906025007 | 23 | 41 | 3.2 | 8.0 | 0.00 | 0.00 | 0.00 | 88 | 1017.0 |
| 20260906024517 | 23 | 68 | 4.8 | 8.0 | 0.00 | 0.00 | 0.00 | 88 | 1017.0 |
| 20260906024011 | 23 | 63 | 4.8 | 8.0 | 0.00 | 0.00 | 0.00 | 88 | 1017.0 |
| 20260906023512 | 23 | 55 | 3.2 | 11.3 | 0.00 | 0.00 | 0.00 | 87 | 1016.9 |
| 20260906023026 | 23 | 55 | 3.2 | 11.3 | 0.00 | 0.00 | 0.00 | 87 | 1016.9 |
| 20260906022512 | 23 | 59 | 4.8 | 8.0 | 0.00 | 0.00 | 0.00 | 87 | 1016.9 |
| 20260906022016 | 24 | 88 | 4.8 | 9.7 | 0.00 | 0.00 | 0.00 | 87 | 1016.9 |
| 20260906021530 | 24 | 59 | 4.8 | 9.7 | 0.00 | 0.00 | 0.00 | 87 | 1016.7 |
| 20260906021016 | 24 | 64 | 4.8 | 6.4 | 0.00 | 0.00 | 0.00 | 87 | 1016.7 |
| 20260906020513 | 24 | 61 | 3.2 | 6.4 | 0.00 | 0.00 | 0.00 | 86 | 1016.6 |
| 20260906020034 | 24 | 63 | 3.2 | 6.4 | 0.00 | 0.00 | 0.00 | 86 | 1016.5 |
| 20260906015505 | 24 | 74 | 1.6 | 6.4 | 0.00 | 0.00 | 0.00 | 86 | 1016.4 |
| 20260906015007 | 24 | 75 | 3.2 | 6.4 | 0.00 | 0.00 | 0.00 | 86 | 1016.2 |
| 20260906014535 | 24 | 45 | 3.2 | 6.4 | 0.00 | 0.00 | 0.00 | 86 | 1016.1 |
| 20260906014007 | 24 | 55 | 3.2 | 6.4 | 0.00 | 0.00 | 0.00 | 86 | 1016.0 |
| 20260906013514 | 24 | 57 | 3.2 | 6.4 | 0.00 | 0.00 | 0.00 | 86 | 1016.0 |
| 20260906013026 | 24 | 60 | 3.2 | 6.4 | 0.00 | 0.00 | 0.00 | 86 | 1016.0 |
| 20260906012512 | 24 | 60 | 3.2 | 8.0 | 0.00 | 0.00 | 0.00 | 86 | 1015.9 |
| 20260906012005 | 25 | 85 | 1.6 | 8.0 | 0.00 | 0.00 | 0.00 | 85 | 1015.9 |
| 20260906011508 | 25 | 71 | 3.2 | 6.4 | 0.00 | 0.00 | 0.00 | 85 | 1015.9 |
| 20260906011005 | 25 | 61 | 3.2 | 6.4 | 0.00 | 0.00 | 0.00 | 85 | 1016.0 |
| 20260906010504 | 25 | 51 | 3.2 | 4.8 | 0.00 | 0.00 | 0.00 | 85 | 1016.0 |
| 20260906010033 | 25 | 40 | 1.6 | 6.4 | 0.00 | 0.00 | 0.00 | 85 | 1016.0 |
| 20260906005505 | 25 | 61 | 1.6 | 6.4 | 0.00 | 0.00 | 0.00 | 85 | 1016.0 |
| 20260906005009 | 25 | 66 | 1.6 | 4.8 | 0.00 | 0.00 | 0.00 | 85 | 1015.9 |
| 20260906004510 | 25 | 45 | 1.6 | 4.8 | 0.00 | 0.00 | 0.00 | 85 | 1015.8 |
| 20260906004006 | 25 | 77 | 1.6 | 4.8 | 0.00 | 0.00 | 0.00 | 84 | 1015.7 |
| 20260906003503 | 25 | 74 | 1.6 | 3.2 | 0.00 | 0.00 | 0.00 | 84 | 1015.6 |
| 20260906003010 | 25 | 74 | 3.2 | 4.8 | 0.00 | 0.00 | 0.00 | 84 | 1015.6 |
| 20260906002502 | 25 | 69 | 1.6 | 4.8 | 0.00 | 0.00 | 0.00 | 83 | 1015.6 |
| 20260906002005 | 25 | 59 | 0.0 | 6.4 | 0.00 | 0.00 | 0.00 | 83 | 1015.5 |
| 20260906001509 | 26 | 61 | 3.2 | 6.4 | 0.00 | 0.00 | 0.00 | 82 | 1015.6 |
| 20260906001003 | 26 | 57 | 3.2 | 6.4 | 0.00 | 0.00 | 0.00 | 82 | 1015.7 |
| 20260906000504 | 26 | 54 | 1.6 | 3.2 | 0.00 | 0.00 | 0.00 | 82 | 1015.6 |
| 20260906000007 | 26 | 47 | 1.6 | 4.8 | 0.00 | 0.00 | 0.00 | 81 | 1015.7 |
| 20260905235504 | 26 | 55 | 3.2 | 6.4 | 0.00 | 0.00 | 0.00 | 81 | 1015.7 |
| 20260905235006 | 26 | 53 | 0.0 | 6.4 | 0.00 | 0.00 | 0.00 | 81 | 1015.7 |
| 20260905234510 | 26 | 57 | 1.6 | 8.0 | 0.00 | 0.00 | 0.00 | 81 | 1015.7 |
| 20260905234010 | 26 | 58 | 3.2 | 8.0 | 0.00 | 0.00 | 0.00 | 81 | 1015.7 |
| 20260905233510 | 26 | 77 | 3.2 | 8.0 | 0.00 | 0.00 | 0.00 | 81 | 1015.6 |
| 20260905233012 | 27 | 76 | 4.8 | 14.5 | 0.00 | 0.00 | 0.00 | 80 | 1015.7 |
| 20260905232506 | 27 | 84 | 4.8 | 14.5 | 0.00 | 0.00 | 0.00 | 80 | 1015.7 |
| 20260905232006 | 27 | 55 | 4.8 | 12.9 | 0.00 | 0.00 | 0.00 | 80 | 1015.6 |
| 20260905231510 | 27 | 71 | 3.2 | 12.9 | 0.00 | 0.00 | 0.00 | 80 | 1015.6 |
| 20260905231011 | 27 | 89 | 6.4 | 12.9 | 0.00 | 0.00 | 0.00 | 81 | 1015.5 |
| 20260905230503 | 27 | 50 | 3.2 | 12.9 | 0.00 | 0.00 | 0.00 | 81 | 1015.4 |
| 20260905230014 | 27 | 62 | 6.4 | 11.3 | 0.00 | 0.00 | 0.00 | 80 | 1015.2 |
| 20260905225507 | 27 | 71 | 8.0 | 14.5 | 0.00 | 0.00 | 0.00 | 79 | 1015.2 |
| 20260905225004 | 27 | 77 | 6.4 | 16.1 | 0.00 | 0.00 | 0.00 | 79 | 1015.1 |
| 20260905224508 | 27 | 52 | 6.4 | 17.7 | 0.00 | 0.00 | 0.00 | 79 | 1015.1 |
| 20260905224005 | 28 | 104 | 4.8 | 20.9 | 0.00 | 0.00 | 0.00 | 78 | 1015.0 |
| 20260905223506 | 28 | 64 | 9.7 | 20.9 | 0.00 | 0.00 | 0.00 | 78 | 1014.9 |
| 20260905223019 | 28 | 49 | 9.7 | 19.3 | 0.00 | 0.00 | 0.00 | 78 | 1014.8 |
| 20260905222506 | 28 | 58 | 8.0 | 19.3 | 0.00 | 0.00 | 0.00 | 78 | 1014.9 |
| 20260905222007 | 28 | 76 | 11.3 | 22.5 | 0.00 | 0.00 | 0.00 | 78 | 1014.9 |
| 20260905221515 | 28 | 67 | 9.7 | 22.5 | 0.00 | 0.00 | 0.00 | 78 | 1014.9 |
| 20260905221007 | 29 | 63 | 4.8 | 19.3 | 0.00 | 0.00 | 0.00 | 77 | 1015.0 |
| 20260905220507 | 29 | 49 | 9.7 | 19.3 | 0.00 | 0.00 | 0.00 | 77 | 1014.9 |
| 20260905220013 | 29 | 52 | 8.0 | 17.7 | 0.00 | 0.00 | 0.00 | 77 | 1014.7 |
| 20260905215512 | 29 | 45 | 8.0 | 17.7 | 0.00 | 0.00 | 0.00 | 77 | 1014.7 |
| 20260905215010 | 29 | 85 | 8.0 | 17.7 | 0.00 | 0.00 | 0.00 | 77 | 1014.7 |
| 20260905214518 | 29 | 69 | 6.4 | 16.1 | 0.00 | 0.00 | 0.00 | 78 | 1014.7 |
| 20260905214005 | 29 | 83 | 8.0 | 17.7 | 0.00 | 0.00 | 0.00 | 77 | 1014.6 |
| 20260905213506 | 29 | 78 | 9.7 | 19.3 | 0.00 | 0.00 | 0.00 | 77 | 1014.6 |
| 20260905213018 | 29 | 64 | 6.4 | 20.9 | 0.00 | 0.00 | 0.00 | 77 | 1014.6 |
| 20260905212508 | 29 | 50 | 8.0 | 20.9 | 0.00 | 0.00 | 0.00 | 76 | 1014.8 |
| 20260905212008 | 29 | 61 | 9.7 | 16.1 | 0.00 | 0.00 | 0.00 | 77 | 1014.9 |
| 20260905211533 | 29 | 71 | 6.4 | 16.1 | 0.00 | 0.00 | 0.00 | 76 | 1015.0 |
| 20260905211010 | 29 | 101 | 6.4 | 16.1 | 0.00 | 0.00 | 0.00 | 76 | 1015.1 |
| 20260905210507 | 30 | 74 | 4.8 | 14.5 | 0.00 | 0.00 | 0.00 | 77 | 1015.2 |
| 20260905210015 | 30 | 68 | 3.2 | 16.1 | 0.00 | 0.00 | 0.00 | 77 | 1015.2 |
| 20260905205509 | 30 | 60 | 8.0 | 16.1 | 0.00 | 0.00 | 0.00 | 75 | 1015.2 |
| 20260905205008 | 30 | 49 | 4.8 | 14.5 | 0.00 | 0.00 | 0.00 | 76 | 1015.3 |
| 20260905204523 | 30 | 67 | 8.0 | 14.5 | 0.00 | 0.00 | 0.00 | 76 | 1015.3 |
| 20260905204011 | 30 | 62 | 6.4 | 14.5 | 0.00 | 0.00 | 0.00 | 75 | 1015.4 |
| 20260905203508 | 30 | 55 | 4.8 | 14.5 | 0.00 | 0.00 | 0.00 | 75 | 1015.3 |
| 20260905203034 | 30 | 77 | 4.8 | 14.5 | 0.00 | 0.00 | 0.00 | 75 | 1015.4 |
| 20260905202509 | 30 | 73 | 8.0 | 16.1 | 0.00 | 0.00 | 0.00 | 74 | 1015.5 |
| 20260905202006 | 30 | 55 | 4.8 | 16.1 | 0.00 | 0.00 | 0.00 | 74 | 1015.6 |
| 20260905201525 | 31 | 61 | 6.4 | 12.9 | 0.00 | 0.00 | 0.00 | 72 | 1015.6 |
| 20260905201008 | 31 | 60 | 1.6 | 16.1 | 0.00 | 0.00 | 0.00 | 75 | 1015.6 |
| 20260905200508 | 30 | 80 | 4.8 | 16.1 | 0.00 | 0.00 | 0.00 | 74 | 1015.6 |
| 20260905200017 | 31 | 82 | 4.8 | 14.5 | 0.00 | 0.00 | 0.00 | 73 | 1015.7 |
| 20260905195507 | 31 | 276 | 4.8 | 11.3 | 0.00 | 0.00 | 0.00 | 73 | 1015.8 |
| 20260905195011 | 30 | 85 | 1.6 | 16.1 | 0.00 | 0.00 | 0.00 | 76 | 1016.0 |
| 20260905194518 | 30 | 61 | 4.8 | 16.1 | 0.00 | 0.00 | 0.00 | 75 | 1016.0 |
| 20260905194010 | 30 | 69 | 3.2 | 14.5 | 0.00 | 0.00 | 0.00 | 76 | 1015.9 |
| 20260905193509 | 30 | 34 | 4.8 | 17.7 | 0.00 | 0.00 | 0.00 | 76 | 1015.9 |
| 20260905193023 | 30 | 323 | 6.4 | 17.7 | 0.00 | 0.00 | 0.00 | 76 | 1015.8 |
| 20260905192513 | 31 | 59 | 3.2 | 17.7 | 0.00 | 0.00 | 0.00 | 77 | 1015.9 |
| 20260905192008 | 30 | 28 | 1.6 | 17.7 | 0.00 | 0.00 | 0.00 | 77 | 1016.0 |
| 20260905191524 | 30 | 54 | 6.4 | 17.7 | 0.00 | 0.00 | 0.00 | 77 | 1016.1 |
| 20260905191008 | 31 | 91 | 9.7 | 16.1 | 0.00 | 0.00 | 0.00 | 75 | 1016.0 |
| 20260905190507 | 31 | 62 | 3.2 | 6.4 | 0.00 | 0.00 | 0.00 | 75 | 1016.3 |
| 20260905190023 | 31 | 312 | 1.6 | 16.1 | 0.00 | 0.00 | 0.00 | 77 | 1016.4 |
| 20260905185509 | 30 | 64 | 6.4 | 17.7 | 0.00 | 0.00 | 0.00 | 76 | 1016.4 |
| 20260905185011 | 31 | 105 | 9.7 | 17.7 | 0.00 | 0.00 | 0.00 | 74 | 1016.3 |
| 20260905184527 | 31 | 61 | 8.0 | 16.1 | 0.00 | 0.00 | 0.00 | 73 | 1016.4 |
| 20260905184013 | 31 | 333 | 0.0 | 6.4 | 0.00 | 0.00 | 0.00 | 73 | 1016.5 |
| 20260905183512 | 31 | 89 | 3.2 | 6.4 | 0.00 | 0.00 | 0.00 | 72 | 1016.4 |
| 20260905183025 | 31 | 319 | 1.6 | 4.8 | 0.00 | 0.00 | 0.00 | 73 | 1016.4 |
| 20260905182513 | 31 | 288 | 1.6 | 11.3 | 0.00 | 0.00 | 0.00 | 74 | 1016.4 |
| 20260905182011 | 30 | 64 | 4.8 | 11.3 | 0.00 | 0.00 | 0.00 | 76 | 1016.5 |
| 20260905181525 | 30 | 63 | 3.2 | 8.0 | 0.00 | 0.00 | 0.00 | 76 | 1016.5 |
| 20260905181010 | 30 | 57 | 1.6 | 8.0 | 0.00 | 0.00 | 0.00 | 77 | 1016.5 |
| 20260905180509 | 30 | 51 | 1.6 | 8.0 | 0.00 | 0.00 | 0.00 | 76 | 1016.5 |
| 20260905180018 | 30 | 55 | 3.2 | 8.0 | 0.00 | 0.00 | 0.00 | 76 | 1016.4 |
| 20260905175511 | 30 | 5 | 1.6 | 9.7 | 0.00 | 0.00 | 0.00 | 76 | 1016.4 |
| 20260905175010 | 30 | 59 | 3.2 | 9.7 | 0.00 | 0.00 | 0.00 | 76 | 1016.3 |
| 20260905174527 | 30 | 68 | 1.6 | 8.0 | 0.00 | 0.00 | 0.00 | 75 | 1016.2 |
| 20260905174011 | 30 | 63 | 3.2 | 11.3 | 0.00 | 0.00 | 0.00 | 76 | 1016.3 |
| 20260905173512 | 30 | 45 | 3.2 | 11.3 | 0.00 | 0.00 | 0.00 | 76 | 1016.2 |
| 20260905173026 | 30 | 33 | 8.0 | 11.3 | 0.00 | 0.00 | 0.00 | 76 | 1016.2 |
| 20260905172509 | 30 | 65 | 1.6 | 11.3 | 0.00 | 0.00 | 0.00 | 76 | 1016.3 |
| 20260905172011 | 30 | 50 | 6.4 | 11.3 | 0.00 | 0.00 | 0.00 | 76 | 1016.3 |
| 20260905171524 | 30 | 44 | 3.2 | 6.4 | 0.00 | 0.00 | 0.00 | 76 | 1016.2 |
| 20260905171013 | 30 | 32 | 3.2 | 14.5 | 0.00 | 0.00 | 0.00 | 77 | 1016.2 |
| 20260905170513 | 29 | 42 | 6.4 | 14.5 | 0.00 | 0.00 | 0.00 | 76 | 1016.2 |
| 20260905170025 | 30 | 44 | 8.0 | 14.5 | 0.00 | 0.00 | 0.00 | 77 | 1016.3 |